Weather History for RJAW - October, 2012

Change the Weather History Date:

Sunday, October 7, 2012

  Actual Average Record
Temperature  
Mean Temperature 83 °F -  
Max Temperature 86 °F 80 °F 86 °F (1998)
Min Temperature 80 °F 75 °F 77 °F (1996)
Cooling Degree Days 18    
Growing Degree Days 33 (Base 50)    
Moisture  
Dew Point 76 °F    
Average Humidity 80    
Maximum Humidity 89    
Minimum Humidity 74    
Precipitation  
Precipitation 0.00 in - - ()
Sea Level Pressure  
Sea Level Pressure 29.81 in    
Wind  
Wind Speed 14 mph ()    
Max Wind Speed 17 mph    
Max Gust Speed -    
Visibility 6.2 miles    
Events      
Averages and records for this station are not official NWS values.
T = Trace of Precipitation, MM = Missing Value Source: Averaged Metar Reports

Daily Weather History Graph

Daily Weather History Graph

Search for Another Location

Airport or City:

Trip Planner

Search our weather history database for the weather conditions in past years. The results will help you decide how hot, cold, wet, or windy it might be!

Date:

Astronomy

Oct. 07, 2012 Rise Set
Actual Time 6:29 AM ChST 6:15 PM ChST
Civil Twilight 6:06 AM ChST 6:38 PM ChST
Nautical Twilight 5:39 AM ChST 7:04 PM ChST
Astronomical Twilight 5:13 AM ChST 7:31 PM ChST
Moon 11:16 PM ChST (10/7) 12:12 PM ChST (10/7)
Length of Visible Light 12h 32m
Length of Day
11h 46m
Waning Gibbous, 62% of the Moon is Illuminated
Oct 7
Waning Gibbous
Oct 8
Last Quarter
Oct 15
New
Oct 22
First Quarter
Oct 30
Full

Hourly Weather History & Observations

Time (ChST) Temp. Heat Index Dew Point Humidity Pressure Visibility Wind Dir Wind Speed Gust Speed Precip Events Conditions
1:00 AM 80.6 °F 86.2 °F 75.2 °F 84% 29.83 in 6.2 mi ESE 16.1 mph - N/A   Partly Cloudy
4:00 AM 80.6 °F 86.2 °F 75.2 °F 84% 29.80 in 6.2 mi ESE 16.1 mph - N/A   Mostly Cloudy
6:00 AM 80.6 °F 87.1 °F 77.0 °F 89% 29.80 in 6.2 mi ESE 17.3 mph - N/A   Mostly Cloudy
7:00 AM 80.6 °F 86.2 °F 75.2 °F 84% 29.83 in 6.2 mi ESE 16.1 mph - N/A   Mostly Cloudy
8:00 AM 82.4 °F 90.9 °F 77.0 °F 84% 29.83 in 6.2 mi ESE 17.3 mph - N/A   Mostly Cloudy
8:50 AM 84.2 °F 94.1 °F 77.0 °F 79% 29.86 in 6.2 mi SE 16.1 mph - N/A   Scattered Clouds
9:00 AM 84.2 °F 94.1 °F 77.0 °F 79% 29.86 in 6.2 mi SE 16.1 mph - N/A   Scattered Clouds
10:00 AM 84.2 °F 94.1 °F 77.0 °F 79% 29.86 in 6.2 mi ESE 17.3 mph - N/A   Partly Cloudy
11:00 AM 84.2 °F 94.1 °F 77.0 °F 79% 29.83 in 6.2 mi ESE 16.1 mph - N/A   Partly Cloudy
12:00 PM 84.2 °F 94.1 °F 77.0 °F 79% 29.83 in 6.2 mi ESE 16.1 mph - N/A   Mostly Cloudy
12:17 PM 86.0 °F 96.9 °F 77.0 °F 74% 29.83 in 6.2 mi ESE 13.8 mph - N/A   Scattered Clouds
1:00 PM 86.0 °F 96.9 °F 77.0 °F 74% 29.80 in 6.2 mi ESE 15.0 mph - N/A   Partly Cloudy
1:30 PM 86.0 °F 96.9 °F 77.0 °F 74% 29.80 in 6.2 mi ESE 15.0 mph - N/A   Mostly Cloudy
2:00 PM 86.0 °F 96.9 °F 77.0 °F 74% 29.80 in 6.2 mi ESE 16.1 mph - N/A   Mostly Cloudy
3:00 PM 86.0 °F 96.9 °F 77.0 °F 74% 29.77 in 6.2 mi ESE 15.0 mph - N/A   Mostly Cloudy
4:00 PM 84.2 °F 94.1 °F 77.0 °F 79% 29.77 in 6.2 mi ESE 15.0 mph - N/A   Mostly Cloudy
5:00 PM 84.2 °F 94.1 °F 77.0 °F 79% 29.77 in 6.2 mi ESE 13.8 mph - N/A   Mostly Cloudy
5:08 PM 84.2 °F 94.1 °F 77.0 °F 79% 29.77 in 6.2 mi ESE 12.7 mph - N/A   Scattered Clouds
5:50 PM 82.4 °F 89.5 °F 75.2 °F 79% 29.80 in 6.2 mi ESE 15.0 mph - N/A   Mostly Cloudy
6:00 PM 82.4 °F 89.5 °F 75.2 °F 79% 29.80 in 6.2 mi ESE 15.0 mph - N/A   Mostly Cloudy
6:41 PM 80.6 °F 86.2 °F 75.2 °F 84% 29.80 in 6.2 mi ESE 15.0 mph - N/A   Scattered Clouds
7:00 PM 80.6 °F 86.2 °F 75.2 °F 84% 29.80 in 6.2 mi ESE 15.0 mph - N/A   Partly Cloudy
10:00 PM 80.6 °F 86.2 °F 75.2 °F 84% 29.83 in 6.2 mi ESE 15.0 mph - N/A   Mostly Cloudy